Theta_e
343 342 342 342 341 341 341 341 341 340 340 340 339 339 337 335 334 332 333 335 338 341 343 337 330 333 339 340 331 331 331 329 327 334 336 336 332 337 337 338 337 336 334
343 342 342 341 341 340 341 341 341 341 341 340 341 341 340 339 338 336 335 332 332 335 340 343 343 337 336 341 339 332 330 325 324 327 336 337 336 336 336 339 338 337 330
341 342 343 342 342 341 341 340 340 341 341 342 342 341 341 340 340 339 338 338 337 336 334 332 335 337 340 337 338 337 333 330 323 319 331 332 336 336 336 337 338 335 329
339 340 340 340 341 340 340 341 341 341 340 340 340 340 340 339 339 339 341 340 340 338 338 336 333 330 331 338 339 337 335 332 330 322 320 329 331 333 332 329 328 327 323
337 338 338 339 339 339 339 339 339 339 340 339 339 338 338 338 339 340 340 338 338 336 336 336 336 335 330 333 339 336 335 334 331 328 322 327 330 333 332 328 327 319 319
317 316 318 324 330 333 336 338 338 338 338 338 338 339 338 338 337 338 338 338 337 337 336 335 335 336 336 334 338 338 337 336 336 333 325 325 330 330 335 329 328 324 323
317 317 317 316 316 316 316 316 319 323 326 327 328 331 334 336 337 337 337 337 337 336 336 336 336 335 335 335 335 338 338 338 337 336 335 328 329 332 333 334 329 328 324
317 316 315 315 315 315 314 312 311 311 311 312 314 315 317 321 326 334 335 336 337 337 337 336 336 335 335 334 334 334 334 335 336 337 336 335 332 330 333 335 335 330 327
316 314 314 313 313 313 313 314 314 314 314 314 314 314 314 316 319 328 331 333 334 331 333 337 336 334 334 334 334 334 333 334 334 334 334 334 333 334 334 336 336 334 331
314 313 312 312 312 313 313 314 315 315 315 315 315 315 314 315 316 316 322 320 318 320 323 327 328 329 331 332 332 333 334 333 333 334 334 333 333 333 334 333 336 335 335
314 312 312 311 311 311 312 314 314 315 315 315 316 315 315 315 316 316 316 316 315 316 317 325 324 321 331 330 330 331 334 335 335 335 335 335 334 335 335 335 333 335 334
314 312 312 312 311 311 313 313 314 315 315 316 316 317 317 317 317 317 317 317 317 317 316 317 317 317 321 323 325 326 328 329 331 331 333 334 333 333 334 336 334 335 334
314 312 311 312 311 311 312 313 314 315 316 316 316 316 316 317 318 318 318 318 318 319 319 319 319 319 319 320 320 320 321 324 325 329 330 330 329 330 331 333 334 333 335
313 312 311 311 310 311 312 313 314 315 316 316 315 312 312 315 316 316 317 318 318 318 319 319 319 319 319 319 320 320 320 320 322 324 327 329 328 327 329 331 332 333 335
313 312 312 310 310 310 312 314 315 315 315 315 314 314 314 314 315 316 317 317 318 318 318 318 318 319 319 319 319 319 319 319 320 320 323 324 325 325 326 329 331 332 333
313 312 311 310 310 310 311 314 315 315 314 315 314 314 314 314 315 316 317 316 317 317 316 316 316 318 318 319 319 319 316 321 322 323 323 325 324 323 324 327 327 330 331
313 312 311 311 310 310 310 314 315 315 314 313 314 314 314 314 314 313 315 314 315 315 315 314 314 315 316 316 315 315 318 320 323 324 323 323 321 320 321 322 322 325 325
312 311 311 310 310 309 310 313 314 314 313 312 312 312 312 312 313 312 312 311 312 312 311 311 313 314 313 311 310 314 317 323 323 322 320 320 319 319 319 319 319 321 322
312 311 311 310 309 309 311 312 314 313 312 312 311 310 310 311 311 311 310 309 308 306 306 307 308 309 307 309 311 319 322 321 319 318 317 316 315 314 313 315 317 317 316
312 311 310 310 309 308 310 312 313 313 311 311 311 309 308 308 308 309 308 306 305 305 304 304 304 306 304 307 315 317 319 318 316 314 311 309 307 304 303 302 305 309 310
311 311 310 310 309 308 309 312 313 312 311 310 309 306 305 305 305 305 303 303 304 303 300 299 299 301 302 303 309 315 312 315 313 308 304 304 302 300 300 301 302 303 303
312 311 310 310 309 307 307 309 311 311 310 309 306 304 302 301 301 301 300 298 298 297 295 294 295 297 299 302 303 308 306 310 309 306 302 300 298 298 299 301 303 304 302
312 312 311 310 309 307 306 307 310 310 310 309 306 304 302 300 298 296 296 295 295 294 293 293 293 295 297 299 298 303 301 305 304 309 306 302 298 296 296 303 303 302 299
312 312 311 311 310 308 305 306 309 310 310 310 307 304 301 299 296 295 294 294 293 293 293 293 293 293 296 294 296 297 299 299 302 302 304 302 298 294 295 297 300 298 296
312 312 311 311 310 308 305 304 306 308 307 307 305 302 301 300 297 296 294 293 293 292 292 292 293 292 293 293 293 294 295 299 298 298 297 296 294 294 293 297 297 295 294
313 312 311 311 310 308 306 304 304 305 305 304 303 302 301 299 297 296 295 293 292 292 292 292 293 293 292 292 292 292 293 294 295 294 293 293 294 294 295 299 295 293 293
Wind_Speed
10 8 6 7 7 6 6 5 5 5 5 5 5 5 5 6 6 5 5 5 4 5 5 4 3 2 3 1 2 3 3 4 4 5 4 2 2 3 4 2 4 3 3
12 10 8 8 8 7 6 6 5 4 4 4 4 4 4 4 5 4 4 4 4 3 4 5 2 2 2 2 2 2 2 3 3 2 2 4 3 1 2 2 1 1 3
12 10 10 9 9 8 7 6 5 4 3 3 3 2 2 3 3 4 4 4 4 4 4 4 3 2 3 4 5 4 4 3 2 1 1 1 1 2 3 3 4 5 6
10 9 9 8 9 8 8 7 6 5 3 2 2 3 3 3 4 4 5 5 5 5 6 6 5 6 5 5 7 7 5 4 4 3 3 3 4 4 5 6 8 9 8
11 9 9 7 7 7 6 5 4 3 3 2 2 2 3 4 4 5 6 6 7 7 7 7 7 7 6 7 8 8 7 6 6 5 6 5 4 8 9 9 9 8 8
13 10 9 7 6 5 5 4 3 2 2 2 2 3 3 4 5 6 6 7 7 8 8 9 9 8 8 7 7 9 9 9 9 8 7 9 7 7 12 12 12 10 9
13 11 8 7 6 6 5 4 3 3 3 3 4 5 6 6 6 6 6 8 8 9 9 10 9 10 10 10 8 9 11 11 12 12 11 10 11 10 12 13 12 11 11
12 8 7 6 5 5 7 6 4 4 4 4 4 5 5 6 7 6 6 7 8 9 10 10 10 10 10 12 12 11 12 13 15 16 15 14 13 14 12 16 16 14 13
8 6 5 5 4 4 6 6 6 7 7 6 6 5 7 6 6 4 5 6 7 9 10 10 12 13 12 12 12 13 13 14 16 18 18 18 17 16 17 15 20 17 15
8 6 5 5 4 4 5 4 5 6 7 6 6 7 8 6 5 4 4 6 10 10 10 10 9 11 11 12 12 14 14 15 17 19 20 20 19 20 20 18 21 20 17
7 6 5 5 5 4 4 4 4 5 5 3 5 7 7 5 4 5 6 6 6 6 7 7 9 11 8 10 10 11 11 11 13 15 19 22 20 20 19 18 18 23 20
6 5 5 5 6 5 5 4 4 5 4 5 7 9 9 7 6 6 6 6 7 6 6 6 7 8 6 6 8 8 8 10 10 12 14 13 16 18 17 18 20 22 25
6 4 4 5 6 6 5 5 3 4 4 6 8 10 9 7 6 6 6 7 7 8 8 8 7 7 8 8 9 10 11 11 10 10 10 12 15 16 16 15 17 21 22
6 4 3 4 6 6 6 6 5 4 6 8 11 11 7 7 8 8 7 7 8 8 8 9 9 8 8 8 10 11 13 13 12 10 10 13 15 16 16 16 17 18 20
5 3 2 4 6 6 6 6 5 6 7 8 10 12 10 10 9 9 9 8 9 9 9 9 9 8 9 9 10 11 12 12 10 9 9 11 13 14 13 15 16 16 17
6 3 1 3 5 6 6 4 5 6 7 5 6 9 9 10 9 9 9 9 8 9 9 9 10 9 8 8 9 9 10 8 9 7 6 7 11 13 13 14 16 18 16
7 4 1 2 4 5 4 2 3 4 4 6 6 7 7 8 8 9 7 9 8 9 9 8 8 8 8 9 11 11 8 9 8 7 8 8 10 11 10 11 12 14 19
9 6 3 1 3 5 4 1 0 2 2 4 5 5 5 6 6 7 8 10 8 9 9 9 10 10 11 12 11 8 6 7 8 7 6 8 8 9 11 12 14 10 10
9 7 4 2 3 4 2 1 2 1 1 3 6 5 4 4 5 6 7 7 8 9 10 10 10 11 15 14 11 9 12 11 11 11 12 13 13 12 12 11 10 10 11
10 8 5 3 3 3 2 2 4 1 1 1 5 4 4 4 4 3 5 6 7 8 10 10 10 8 14 14 10 12 14 14 13 14 14 13 13 14 15 14 12 12 12
13 10 7 6 5 4 3 3 4 4 2 3 2 3 4 3 3 3 4 4 6 8 10 10 8 8 13 14 5 10 14 15 13 13 12 12 14 15 15 16 15 13 14
16 12 9 8 6 5 4 5 4 4 4 3 1 2 3 3 3 3 3 4 5 6 7 9 10 6 7 13 6 2 2 0 9 9 13 14 15 15 15 13 12 12 14
17 14 11 9 8 6 5 5 5 4 5 5 4 3 2 2 2 3 4 5 5 6 7 8 8 8 6 5 11 3 2 1 3 2 2 8 14 14 12 7 7 9 12
19 13 12 11 9 8 6 7 8 9 8 9 8 6 4 3 3 4 5 5 5 5 6 6 6 6 5 7 2 4 2 1 1 3 1 6 12 18 12 6 2 6 10
16 15 14 12 10 9 8 8 10 10 10 9 9 8 7 7 6 5 5 5 5 5 5 4 4 4 5 4 5 3 1 3 3 2 3 6 17 14 16 2 4 7 10
15 15 15 14 12 11 10 10 11 12 12 12 12 12 10 10 9 8 7 7 6 5 4 4 3 2 2 2 2 2 2 1 1 2 1 3 4 5 7 7 6 7 8
Wind_Direction
90 109 124 123 113 108 106 100 91 85 81 73 67 59 57 53 51 52 52 52 50 44 6 37 38 37 46 30 28 46 39 40 51 72 75 62 122 144 135 107 103 84 52
120 118 112 109 109 110 105 102 95 87 77 69 61 52 45 36 32 33 33 33 28 14 16 15 353 359 349 300 310 323 354 16 30 45 50 56 99 155 196 165 145 1 341
118 122 107 103 105 105 103 102 98 98 92 72 74 46 15 3 359 357 357 358 356 353 342 327 317 331 289 269 274 290 301 320 339 302 233 357 31 173 263 260 271 287 302
122 118 105 106 103 113 115 111 104 92 67 81 57 10 342 331 320 320 311 318 318 319 321 329 323 308 301 278 260 262 281 292 299 287 261 272 255 230 262 277 282 285 288
117 110 103 102 99 101 105 106 105 100 108 82 67 22 334 323 317 314 306 306 306 309 312 315 316 319 310 304 259 262 270 286 297 283 261 260 272 240 252 282 283 279 276
105 98 95 98 100 97 89 82 75 60 35 21 325 1 351 329 311 309 306 305 302 302 304 305 304 305 309 311 271 260 265 274 288 293 277 259 264 266 247 278 282 277 269
111 100 98 90 88 75 67 48 34 17 358 346 340 344 345 340 329 317 314 307 302 301 300 302 309 306 307 302 295 276 272 274 279 283 288 283 264 283 257 258 274 277 269
117 114 102 93 80 69 50 35 27 11 356 346 347 346 340 329 321 315 324 327 317 308 304 305 305 303 302 302 302 294 290 284 282 282 284 282 276 269 273 255 258 268 271
118 119 93 74 64 57 57 41 44 33 17 11 356 348 337 340 349 317 311 319 322 324 315 309 310 309 307 305 302 299 294 289 285 284 284 285 282 273 267 256 251 260 265
108 96 84 77 85 59 47 60 49 47 26 18 12 349 338 323 343 7 358 324 322 313 314 322 329 324 309 306 311 312 305 293 287 289 287 284 286 287 283 269 255 256 254
102 90 80 73 61 49 50 64 46 50 27 356 352 345 349 337 328 337 332 322 335 334 323 311 324 326 314 322 310 313 316 317 311 303 301 287 296 297 285 279 266 254 259
114 85 65 54 46 40 41 43 37 40 16 355 345 345 350 350 342 341 340 357 9 3 356 349 342 353 354 346 336 333 318 316 328 332 327 316 308 306 300 290 283 267 261
133 101 68 45 29 25 32 32 33 14 13 351 343 337 334 340 355 359 358 5 2 5 5 359 346 350 351 350 341 333 328 328 334 328 324 321 315 316 318 314 302 285 272
149 115 74 39 26 27 31 37 35 355 358 355 8 6 10 6 10 11 8 14 7 2 2 4 356 349 342 349 345 332 322 323 332 331 333 325 324 332 328 327 318 306 294
159 135 74 31 23 21 26 39 34 16 2 12 26 38 35 32 28 34 38 34 29 26 21 5 346 345 344 346 339 332 337 340 332 328 337 330 331 336 347 349 345 340 321
174 162 48 23 17 10 17 30 28 22 12 16 38 34 34 30 30 25 24 25 23 25 18 9 6 357 358 354 348 346 347 348 359 359 347 344 357 4 8 16 12 11 8
180 178 180 5 1 357 15 18 39 35 359 54 58 41 22 15 23 29 29 25 22 12 1 354 350 353 341 338 344 347 358 5 30 29 35 21 6 350 346 1 349 25 28
184 181 179 302 338 352 8 344 113 66 25 51 24 357 356 3 25 38 37 28 19 8 12 12 6 4 2 360 0 9 17 69 76 69 64 59 44 42 41 37 39 16 14
191 189 207 278 318 346 347 325 210 145 73 339 336 360 5 15 25 27 25 31 27 22 23 24 26 22 9 5 29 59 89 88 80 76 70 63 54 44 36 28 12 17 20
193 201 223 252 290 318 299 260 193 211 103 313 334 1 9 21 20 17 27 27 21 22 31 31 26 20 14 16 70 72 90 83 75 75 72 67 55 43 35 29 13 2 4
194 214 226 234 259 284 250 202 220 254 270 242 308 10 17 23 26 31 25 22 24 22 23 19 14 13 16 27 106 92 89 80 79 75 70 67 51 38 26 21 19 16 17
209 215 219 233 246 267 274 238 246 254 222 229 259 350 12 18 13 5 14 23 22 17 16 18 21 24 27 33 43 53 2 311 66 76 73 65 48 27 17 15 17 15 20
210 214 223 236 244 262 264 242 216 203 196 215 231 282 295 313 326 339 352 359 3 9 15 17 18 22 22 38 41 67 41 284 325 202 45 43 24 21 19 6 20 22 26
215 220 222 234 243 259 260 237 225 235 238 238 240 261 245 267 296 319 329 337 349 359 5 12 14 16 13 30 42 59 94 35 169 326 346 341 358 4 2 345 9 36 34
218 222 225 228 243 253 252 244 239 240 246 242 239 240 247 255 273 296 311 318 325 339 347 352 358 11 22 23 26 7 62 94 97 127 278 325 338 0 358 40 122 63 39
220 221 220 230 247 250 253 247 243 244 241 235 234 239 244 254 263 271 285 293 298 304 303 304 312 326 359 17 26 21 13 33 19 38 326 307 306 347 21 125 106 75 48